Weather in Buren-Bay-Khaak

Russia / Tyva Republic     51°14′40″N   95°33′20″E
temp.,
°C
wind,
m/s
gust,
m/s
humid.,
%
clouds,
%
prec.,
mm/h
press.,
hPa
HPBL,
m
5 march, fri
fri501:00−17e12900 0.0 103520
04:00−18ene22900 0.0 103420
07:00−20ene22917 0.0 103420
10:00−13ene238117 0.0 1031169
13:00−7ne227736 0.0 1027296
16:00−4ne2279100 0.0 1025281
19:00−8wnw1291100 0.0 102721
22:00−11w2289100 0.0 103022
6 march, sat
sat601:00−14nw118598 0.0 103420
04:00−16e018983 0.0 103620
07:00−17ene119342 0.0 103720
10:00−10ene12852 0.0 1034181
13:00−4nne228419 0.0 1030301
16:00−3n228658 0.0 1027254
19:00−10nnw119630 0.0 102821
22:00−13ese00970 0.0 102821
7 march, sun
sun701:00−14e11922 0.0 102821
04:00−15ene118725 0.0 102820
07:00−17ene118625 0.0 102920
10:00−10ne117966 0.0 1027154
13:00−5nne227681 0.0 1025291
16:00−4n117897 0.0 1024287
19:00−9nnw118998 0.0 102721
22:00−11se0089100 0.0 102921
8 march, mon
mon801:00−14s009267 0.0 103021
04:00−15e119734 0.0 103020
07:00−16ene119748 0.0 103220
10:00−8ene128744 0.0 1029180
13:00−3ne228121 0.0 1026361
16:00−1nne22840 0.0 1024311
19:00−8nnw11970 0.0 102621
22:00−11w00981 0.0 102721
9 march, tue
tue901:00−12ene119813 0.0 102721
04:00−13nw009793 0.0 102721
07:00−12e009690 0.0 103021
10:00−7sw0188100 0.0 1030225
13:00−3n118393 0.0 1029354
16:00−2nnw11790 0.0 1028349
19:00−9nne119317 0.0 103021
22:00−11ne11950 0.0 103121